Weather History for Wheaton NDB, MN

Change the Weather History Date:

Sunday, August 31, 2014

  Actual Average Record
Temperature  
Mean Temperature 65 °F -  
Max Temperature 75 °F 80 °F 95 °F (1953)
Min Temperature 55 °F 55 °F 39 °F (1967)
Growing Degree Days 15 (Base 50)    
Moisture  
Dew Point 61 °F    
Average Humidity 87    
Maximum Humidity 100    
Minimum Humidity 69    
Precipitation  
Precipitation 0.02 in - - ()
Sea Level Pressure  
Sea Level Pressure 29.67 in    
Wind  
Wind Speed 10 mph (South)    
Max Wind Speed 17 mph    
Max Gust Speed 22 mph    
Visibility 9 miles    
Events Rain , Thunderstorm    
Averages and records for this station are not official NWS values.
T = Trace of Precipitation, MM = Missing Value Source: NWS Daily Summary

Daily Weather History Graph

Daily Weather History Graph

Search for Another Location

Airport:

Trip Planner

Search our weather history database for the weather conditions in past years. The results will help you decide how hot, cold, wet, or windy it might be!

Date:

Astronomy

Aug. 31, 2014 Rise Set
Actual Time 6:46 AM CDT 8:06 PM CDT
Civil Twilight 6:15 AM CDT 8:36 PM CDT
Nautical Twilight 5:37 AM CDT 9:13 PM CDT
Astronomical Twilight 4:58 AM CDT 9:53 PM CDT
Moon 12:52 PM CDT (8/31) 11:02 PM CDT (8/31)
Length of Visible Light 14h 21m
Length of Day
13h 20m
Waxing Crescent, 32% of the Moon is Illuminated
Aug 31
Waxing Crescent
Sep 2
First Quarter
Sep 8
Full
Sep 15
Last Quarter
Sep 24
New

Hourly Weather History & Observations

Time (CDT) Temp. Dew Point Humidity Pressure Visibility Wind Dir Wind Speed Gust Speed Precip Events Conditions
12:16 AM 55.4 °F 53.6 °F 94% 29.84 in 7.0 mi SE 5.8 mph - N/A   Clear
12:36 AM 55.4 °F 55.4 °F 100% 29.84 in 7.0 mi SE 5.8 mph - N/A   Scattered Clouds
12:56 AM 55.4 °F 53.6 °F 94% 29.83 in 5.0 mi ESE 5.8 mph - N/A   Scattered Clouds
1:16 AM 55.4 °F 53.6 °F 94% 29.82 in 5.0 mi ESE 6.9 mph - N/A   Clear
1:36 AM 55.4 °F 55.4 °F 100% 29.80 in 5.0 mi ESE 9.2 mph - N/A   Clear
1:56 AM 55.4 °F 55.4 °F 100% 29.77 in 7.0 mi ESE 12.7 mph - N/A   Clear
2:16 AM 57.2 °F 55.4 °F 94% 29.77 in 7.0 mi SE 12.7 mph - N/A   Clear
2:36 AM 57.2 °F 57.2 °F 100% 29.77 in 7.0 mi SE 11.5 mph - N/A   Clear
2:56 AM 57.2 °F 57.2 °F 100% 29.76 in 7.0 mi SE 13.8 mph - N/A   Clear
3:16 AM 57.2 °F 57.2 °F 100% 29.74 in 7.0 mi SE 13.8 mph - N/A   Clear
3:36 AM 59.0 °F 57.2 °F 94% 29.72 in 7.0 mi ESE 15.0 mph - N/A   Scattered Clouds
3:56 AM 59.0 °F 57.2 °F 94% 29.72 in 7.0 mi SE 12.7 mph - N/A   Scattered Clouds
4:16 AM 60.8 °F 59.0 °F 94% 29.71 in 2.5 mi SE 12.7 mph - N/A Rain , Thunderstorm Light Thunderstorms and Rain
4:36 AM 60.8 °F 59.0 °F 94% 29.70 in 10.0 mi ESE 12.7 mph - 0.02 in Rain , Thunderstorm Light Thunderstorms and Rain
4:56 AM 60.8 °F 59.0 °F 94% 29.69 in 7.0 mi SE 11.5 mph - N/A Thunderstorm Thunderstorm
5:16 AM 60.8 °F 57.2 °F 88% 29.68 in 7.0 mi ESE 9.2 mph - N/A   Clear
5:36 AM 60.8 °F 59.0 °F 94% 29.67 in 10.0 mi ESE 12.7 mph - N/A   Clear
5:56 AM 60.8 °F 59.0 °F 94% 29.66 in 10.0 mi SE 15.0 mph 18.4 mph N/A   Scattered Clouds
6:16 AM 60.8 °F 59.0 °F 94% 29.66 in 10.0 mi SE 12.7 mph 21.9 mph N/A   Clear
6:36 AM 60.8 °F 59.0 °F 94% 29.65 in 10.0 mi ESE 15.0 mph - N/A   Clear
6:56 AM 60.8 °F 59.0 °F 94% 29.65 in 10.0 mi ESE 10.4 mph - N/A   Clear
7:16 AM 60.8 °F 59.0 °F 94% 29.63 in 10.0 mi ESE 13.8 mph - N/A   Clear
7:36 AM 60.8 °F 59.0 °F 94% 29.63 in 10.0 mi SE 15.0 mph 19.6 mph N/A   Clear
7:56 AM 60.8 °F 60.8 °F 100% 29.62 in 10.0 mi SE 13.8 mph - N/A   Clear
8:16 AM 62.6 °F 60.8 °F 94% 29.62 in 10.0 mi SE 15.0 mph - N/A   Clear
8:36 AM 62.6 °F 60.8 °F 94% 29.63 in 10.0 mi SE 16.1 mph - N/A   Clear
8:56 AM 64.4 °F 60.8 °F 88% 29.62 in 10.0 mi SE 15.0 mph 19.6 mph N/A   Clear
9:16 AM 64.4 °F 60.8 °F 88% 29.61 in 10.0 mi SSE 13.8 mph - N/A   Clear
9:36 AM 66.2 °F 62.6 °F 88% 29.62 in 10.0 mi SSE 11.5 mph - N/A   Scattered Clouds
9:56 AM 66.2 °F 62.6 °F 88% 29.62 in 10.0 mi South 12.7 mph - N/A   Scattered Clouds
10:16 AM 66.2 °F 62.6 °F 88% 29.62 in 10.0 mi South 12.7 mph 20.7 mph N/A   Scattered Clouds
10:36 AM 68.0 °F 62.6 °F 83% 29.62 in 10.0 mi South 13.8 mph 17.3 mph N/A   Clear
10:56 AM 69.8 °F 64.4 °F 83% 29.62 in 10.0 mi South 11.5 mph 17.3 mph N/A   Clear
11:16 AM 71.6 °F 64.4 °F 78% 29.61 in 10.0 mi South 11.5 mph - N/A   Clear
11:36 AM 73.4 °F 66.2 °F 78% 29.62 in 10.0 mi SW 10.4 mph - N/A   Scattered Clouds
11:56 AM 73.4 °F 66.2 °F 78% 29.62 in 10.0 mi SW 11.5 mph - N/A   Scattered Clouds
12:16 PM 75.2 °F 66.2 °F 73% 29.62 in 10.0 mi WSW 10.4 mph - N/A   Clear
12:36 PM 75.2 °F 64.4 °F 69% 29.62 in 10.0 mi WSW 15.0 mph 20.7 mph N/A   Clear
12:56 PM 75.2 °F 64.4 °F 69% 29.63 in 10.0 mi WSW 13.8 mph 19.6 mph N/A   Clear
1:16 PM 75.2 °F 64.4 °F 69% 29.63 in 10.0 mi WSW 15.0 mph 18.4 mph N/A   Clear
1:36 PM 73.4 °F 64.4 °F 73% 29.63 in 10.0 mi WSW 16.1 mph 21.9 mph N/A   Scattered Clouds
1:56 PM 73.4 °F 64.4 °F 73% 29.63 in 10.0 mi WSW 15.0 mph 20.7 mph N/A   Clear
2:16 PM 73.4 °F 64.4 °F 73% 29.65 in 10.0 mi WSW 17.3 mph 20.7 mph N/A   Clear
2:36 PM 71.6 °F 62.6 °F 73% 29.65 in 10.0 mi WSW 11.5 mph 17.3 mph N/A   Clear
2:56 PM 73.4 °F 62.6 °F 69% 29.66 in 10.0 mi WNW 9.2 mph - N/A   Clear
3:16 PM 73.4 °F 64.4 °F 73% 29.68 in 10.0 mi West 8.1 mph - N/A   Scattered Clouds
3:36 PM 71.6 °F 62.6 °F 73% 29.68 in 10.0 mi WNW 11.5 mph 16.1 mph N/A   Mostly Cloudy
3:56 PM 73.4 °F 62.6 °F 69% 29.68 in 10.0 mi West 5.8 mph - N/A   Scattered Clouds
4:16 PM 71.6 °F 62.6 °F 73% 29.69 in 10.0 mi West 9.2 mph - N/A   Scattered Clouds
4:36 PM 71.6 °F 62.6 °F 73% 29.69 in 10.0 mi WSW 8.1 mph - N/A   Clear
4:56 PM 71.6 °F 62.6 °F 73% 29.69 in 10.0 mi West 8.1 mph - N/A   Clear
5:16 PM 69.8 °F 62.6 °F 78% 29.69 in 10.0 mi West 5.8 mph - N/A   Clear
5:36 PM 69.8 °F 62.6 °F 78% 29.68 in 10.0 mi West 5.8 mph - N/A Rain Light Rain
5:56 PM 69.8 °F 64.4 °F 83% 29.66 in 10.0 mi WNW 3.5 mph - N/A   Light Drizzle
6:16 PM 68.0 °F 62.6 °F 83% 29.66 in 10.0 mi WNW 4.6 mph - N/A Rain Light Rain
6:36 PM 66.2 °F 64.4 °F 94% 29.65 in 10.0 mi West 3.5 mph - N/A Rain Light Rain
7:16 PM 66.2 °F 62.6 °F 88% 29.65 in 10.0 mi Calm Calm - N/A   Scattered Clouds
7:36 PM 66.2 °F 62.6 °F 88% 29.65 in 10.0 mi SW 3.5 mph - N/A   Mostly Cloudy
8:16 PM 64.4 °F 62.6 °F 94% 29.64 in 10.0 mi Calm Calm - N/A   Mostly Cloudy
8:36 PM 64.4 °F 60.8 °F 88% 29.62 in 10.0 mi West 3.5 mph - N/A   Scattered Clouds
8:56 PM 62.6 °F 60.8 °F 94% 29.63 in 10.0 mi Calm Calm - N/A   Clear
9:16 PM 62.6 °F 60.8 °F 94% 29.64 in 10.0 mi WSW 3.5 mph - N/A   Clear
9:36 PM 62.6 °F 60.8 °F 94% 29.65 in 10.0 mi Calm Calm - N/A   Clear
9:56 PM 60.8 °F 59.0 °F 94% 29.66 in 10.0 mi Calm Calm - N/A   Clear
10:16 PM 60.8 °F 59.0 °F 94% 29.67 in 10.0 mi Calm Calm - N/A   Clear
10:36 PM 60.8 °F 59.0 °F 94% 29.69 in 10.0 mi SW 3.5 mph - N/A   Scattered Clouds
10:56 PM 60.8 °F 59.0 °F 94% 29.69 in 10.0 mi WSW 3.5 mph - N/A   Scattered Clouds
11:16 PM 60.8 °F 59.0 °F 94% 29.69 in 10.0 mi WSW 3.5 mph - N/A   Clear
11:36 PM 60.8 °F 59.0 °F 94% 29.69 in 10.0 mi WSW 3.5 mph - N/A   Clear
11:56 PM 60.8 °F 59.0 °F 94% 29.69 in 10.0 mi Calm Calm - N/A   Clear